Weather in Cala d Or

Spain     39°22′31″N   3°13′30″E
temp.,
°C
wind,
m/s
gust,
m/s
humid.,
%
clouds,
%
prec.,
mm/h
press.,
hPa
HPBL,
m
6 march, sat
sat601:00+9n22820 0.0 102051
04:00+8n228322 0.0 102055
07:00+9nne348157 0.0 1021127
10:00+13ene346599 0.0 1022569
13:00+15ene556390 0.0 1023683
16:00+15ene556649 0.0 1022754
19:00+12ene468442 0.0 1021259
22:00+11ene348765 0.0 1023177
7 march, sun
sun701:00+10nne238971 0.0 1022136
04:00+10nne339199 0.0 1020129
07:00+10ne349194 0.0 1020174
10:00+12ene4685100 0.3 1019501
13:00+12ne4584100 0.4 1019400
16:00+12nne4587100 1.9 1017369
19:00+10nne4692100 5.6 1017255
22:00+10nne4691100 0.0 1017206
8 march, mon
mon801:00+11nne239096 0.0 1016181
04:00+11nne4890100 0.0 1014408
07:00+10nne5891100 0.0 1014308
10:00+13ne687894 0.0 1015768
13:00+13nne688296 0.2 1016738
16:00+12nne71084100 0.4 1015686
19:00+11nne5884100 0.4 1015425
22:00+10nne4685100 0.0 1016258
9 march, tue
tue901:00+10n4783100 0.0 1017324
04:00+10n61085100 0.0 1016517
07:00+10n6108589 0.0 1017456
10:00+13nne8107279 0.0 1019922
13:00+14ne785781 0.0 10201177
16:00+14ne56604 0.0 1019998
19:00+10ne347121 0.0 1020267
22:00+9nne12750 0.0 1022194
10 march, wed
wed1001:00+8nw22800 0.0 102252
04:00+8wsw12790 0.0 102251
07:00+8w23830 0.0 102387
10:00+13w45670 0.0 1025719
13:00+16wsw44595 0.2 10261062
16:00+14w356763 0.3 1025702
19:00+11wsw238270 0.4 1025218
22:00+10wsw24898 0.0 1027134